{"data":{"norad_id":67408,"intl_designator":"2026-005E","name":"STARLINK-36509","alt_names":[],"object_type":"PAYLOAD","status":"ACTIVE","operator":null,"country":"US","launch_date":"2026-01-12","launch_site_code":"AFETR","launch_vehicle":null,"mission":null,"orbit_class":"UNKNOWN","rcs_meters":null,"size_class":null,"mass_kg":null,"dimensions":null,"purposes":["comms"],"wikipedia_slug":null,"has_3d_model":false,"image_url":null,"decayed_at":null,"tle_current":{"epoch":"2026-05-24T09:02:42.973728Z","epoch_age_seconds":128987,"freshness":"FRESH","line1":"1 67408U 26005E   26144.37688627  .00011241  00000+0  41734-3 0  9992","line2":"2 67408  43.0016 170.3906 0001228 273.6209  86.4503 15.27584815 20261","mean_motion":15.27584815,"eccentricity":0.0001228,"inclination_deg":43.0016,"raan_deg":170.3906,"arg_perigee_deg":273.6209,"mean_anomaly_deg":86.4503,"bstar":0.00041734,"rev_number":2026,"period_min":94.26645158161,"perigee_km":482.19212635325,"apogee_km":483.87723011742,"semimajor_km":6861.1716782353,"source":"CELESTRAK","updated_at":"2026-05-25T13:38:21.552875Z"}}}